Tracking 19575 objects as of 18-Feb-2019
HD Live streaming from Space Station
objects crossing your sky now

COSMOS 531

Track COSMOS 531 now!
10-day predictions
COSMOS 531 is classified as:


NORAD ID: 6266
Int'l Code: 1972-087D
Perigee: 1,427.8 km
Apogee: 1,475.8 km
Inclination: 74.0 °
Period: 114.8 minutes
Semi major axis: 7822 km
RCS: 0.7441 m2 (medium)
Launch date: November 1, 1972
Source: Commonwealth of Independent States (former USSR) (CIS)
Launch site: PLESETSK MISSILE AND SPACE COMPLEX (PKMTR)
aabbcc
Your satellite tracking list
Your tracking list is empty




NASA's NSSDC Master Catalog

Two Line Element Set (TLE):
1  6266U 72087D   19048.63210122 -.00000001 +00000-0 +94200-4 0  9994
2  6266 074.0339 102.8396 0030682 022.6975 134.4253 12.54758153120586
Source of the keplerian elements: AFSPC